[[{"header":{"parameterUnit":"m.s-1","parameterCategory":1,"la1":30.2992,"la2":30.254,"lo1":-89.0895,"lo2":-89.0443,"dy":0.0025,"dx":0.0025,"nx":19,"ny":19,"refTime":"2026-04-07T09:00:00:Z","depth":0,"parameterNumber":2,"parameterNumberName":"U-component_of_WINDS"},"data":[0,0,0,-8.3651,-8.3655,-8.3814,-8.3814,-8.4067,-8.407,0,0,0,0,0,0,0,0,0,0,0,-8.3637,-8.3639,-8.3651,-8.3656,-8.3814,-8.3814,-8.4067,-8.407,0,0,0,0,0,0,0,0,0,0,0,-8.3635,-8.3639,-8.3642,-8.3656,-8.3814,-8.3814,-8.4066,-8.3928,0,0,0,0,0,0,0,0,0,0,-8.3765,-8.3784,-8.3638,-8.3642,-8.3658,-8.3814,-8.3815,-8.3921,-8.3937,-8.4017,0,-8.41,0,-8.4089,-8.409,-8.4091,0,0,0,-8.3631,-8.3771,-8.3785,-8.3643,-8.3659,-8.3814,-8.3736,-8.3929,-8.3947,-8.4039,-8.4103,-8.4111,-8.4094,-8.4092,-8.4094,-8.4645,-8.4649,0,0,-8.3622,-8.3682,-8.3772,-8.3798,-8.3779,-8.3731,-8.3741,-8.3939,-8.4012,-8.4104,-8.4116,-8.4098,-8.4094,-8.4097,-8.4642,-8.4646,0,0,0,-8.3614,-8.3677,-8.3684,-8.3789,-8.3814,-8.3736,-8.3748,-8.4003,-8.4,-8.4118,-8.4101,-8.4096,-8.41,-8.4638,-8.4643,-8.4886,0,0,0,-8.3607,-8.3672,-8.3682,-8.372,-8.3812,-8.3911,-8.3808,-8.3987,-8.4007,-8.4099,-8.4096,-8.4103,-8.4633,-8.4641,-8.4871,-8.4991,0,0,0,-8.3615,-8.3672,-8.3707,-8.3723,-8.3794,-8.3906,-8.3914,-8.399,-8.3998,-8.4092,-8.4103,-8.4631,-8.4639,-8.4857,-8.4968,-8.5153,0,0,0,-8.364,-8.392,-8.3712,-8.4017,-8.3793,-8.4057,-8.3912,-8.4105,-8.4214,-8.4098,-8.4634,-8.4643,-8.4852,-8.4954,-8.5139,-8.532,-8.5401,0,0,-8.4027,-8.3969,-8.4144,-8.3962,-8.4278,-8.4027,-8.4378,-8.442,-8.4374,-8.4557,-8.4569,-8.4876,-8.4966,-8.515,-8.5837,-8.5902,0,0,0,-8.4287,-8.4413,-8.4484,-8.4592,-8.4632,-8.4675,-8.4658,-8.4673,-8.4826,-8.4481,-8.4991,-8.5043,-8.5149,-8.5232,-8.5288,-8.5374,-8.4684,-8.4683,-8.4683,-8.492,-8.4846,-8.513,-8.5076,-8.5182,-8.5161,-8.5239,-8.5256,-8.5149,-8.5272,-8.5325,-8.5751,-8.5852,-8.5893,-8.5984,-8.5415,-8.5416,-8.5417,-8.5418,-8.5478,-8.5645,-8.5498,-8.5721,-8.5641,-8.5826,-8.5817,-8.5735,-8.5895,-8.5705,-8.5794,-8.5592,-8.5967,-8.6042,-8.5435,-8.5432,-8.543,-8.5428,-8.5427,-8.5884,-8.5951,-8.5966,-8.6113,-8.6235,-8.6169,-8.633,-8.625,-8.6176,-8.6264,-8.6312,-8.6308,-8.6293,-8.6293,-8.6294,-8.6296,-8.6297,-8.6298,-8.6299,-8.6299,-8.6308,-8.6454,-8.652,-8.6578,-8.6644,-8.6626,-8.668,-8.672,-8.6649,-8.6649,-8.6531,-8.6018,-8.589,-8.6322,-8.6318,-8.6315,-8.6313,-8.6311,-8.6892,-8.6745,-8.6971,-8.703,-8.71,-8.7225,-8.7122,-8.7239,-8.7273,-8.7354,-8.7217,-8.6851,-8.6785,-8.6741,-8.6634,-8.7232,-8.7232,-8.7232,-8.7232,-8.7234,-8.7193,-8.7405,-8.7504,-8.7591,-8.7521,-8.7776,-8.7765,-8.7729,-8.7745,-8.7647,-8.7499,-8.7457,-8.7416,-8.7357,-8.7256,-8.8,-8.8,-8.8001,-8.7593,-8.7557,-8.7791,-8.7756,-8.7805,-8.7848,-8.8086,-8.8203,-8.8132,-8.803,-8.7755,-8.7723,-8.7483,-8.741,-8.7301,-8.7211,-8.7025,0,0]},{"header":{"parameterUnit":"m.s-1","parameterCategory":1,"la1":30.2992,"la2":30.254,"lo1":-89.0895,"lo2":-89.0443,"dy":0.0025,"dx":0.0025,"nx":19,"ny":19,"refTime":"2026-04-07T09:00:00:Z","depth":0,"parameterNumber":3,"parameterNumberName":"V-component_of_WINDS"},"data":[0,0,0,-1.2218,-1.222,-1.2295,-1.2296,-1.2381,-1.2382,0,0,0,0,0,0,0,0,0,0,0,-1.219,-1.219,-1.2218,-1.222,-1.2295,-1.2296,-1.2381,-1.2382,0,0,0,0,0,0,0,0,0,0,0,-1.219,-1.219,-1.2191,-1.222,-1.2295,-1.2296,-1.2381,-1.2328,0,0,0,0,0,0,0,0,0,0,-1.2257,-1.2224,-1.219,-1.2191,-1.2221,-1.2295,-1.2296,-1.2325,-1.2331,-1.2342,0,-1.2351,0,-1.2367,-1.2387,-1.2387,0,0,0,-1.2225,-1.2219,-1.2245,-1.2191,-1.2221,-1.2295,-1.2263,-1.2329,-1.2335,-1.235,-1.2352,-1.2355,-1.2369,-1.2387,-1.2388,-1.2434,-1.2434,0,0,-1.2221,-1.22,-1.2241,-1.2249,-1.2237,-1.226,-1.2265,-1.2333,-1.2334,-1.2352,-1.2358,-1.237,-1.2388,-1.2388,-1.2434,-1.2434,0,0,0,-1.2206,-1.2197,-1.2222,-1.2245,-1.2259,-1.2262,-1.2268,-1.2331,-1.2341,-1.2359,-1.2371,-1.2388,-1.2389,-1.2434,-1.2434,-1.2412,0,0,0,-1.2203,-1.2188,-1.2219,-1.2208,-1.2258,-1.2296,-1.2264,-1.2336,-1.2344,-1.2371,-1.2388,-1.239,-1.2434,-1.2434,-1.2413,-1.2406,0,0,0,-1.2187,-1.2186,-1.2195,-1.2206,-1.2238,-1.2296,-1.2309,-1.2338,-1.2352,-1.2387,-1.239,-1.2434,-1.2434,-1.2414,-1.2407,-1.2411,0,0,0,-1.2164,-1.2176,-1.2194,-1.2212,-1.2237,-1.2282,-1.2309,-1.2344,-1.2372,-1.2389,-1.2434,-1.2434,-1.2414,-1.2407,-1.2411,-1.241,-1.2408,0,0,-1.2168,-1.2176,-1.2188,-1.2206,-1.2242,-1.2272,-1.2305,-1.235,-1.2373,-1.2412,-1.2414,-1.2413,-1.2407,-1.2411,-1.2403,-1.24,0,0,0,-1.2182,-1.219,-1.2204,-1.2229,-1.2263,-1.2292,-1.2334,-1.2351,-1.2385,-1.2389,-1.2416,-1.2413,-1.2417,-1.2417,-1.2415,-1.2419,-1.2433,-1.2433,-1.2433,-1.2158,-1.2185,-1.2207,-1.2242,-1.2265,-1.2308,-1.2329,-1.2359,-1.2381,-1.2386,-1.2398,-1.239,-1.2389,-1.2388,-1.2391,-1.24,-1.24,-1.24,-1.24,-1.2166,-1.2181,-1.2207,-1.2237,-1.2265,-1.2291,-1.2331,-1.2345,-1.2373,-1.2384,-1.2388,-1.2397,-1.2385,-1.2389,-1.2398,-1.2399,-1.2399,-1.2399,-1.2399,-1.2153,-1.2165,-1.2184,-1.222,-1.2246,-1.2281,-1.2305,-1.2331,-1.2354,-1.2358,-1.2373,-1.2373,-1.2376,-1.2363,-1.2363,-1.2363,-1.2363,-1.2363,-1.2363,-1.2132,-1.2154,-1.2171,-1.2206,-1.2224,-1.2251,-1.2291,-1.231,-1.2337,-1.2353,-1.2353,-1.2373,-1.2379,-1.2379,-1.2363,-1.2363,-1.2363,-1.2363,-1.2363,-1.2129,-1.2133,-1.216,-1.2177,-1.2219,-1.2242,-1.2273,-1.2307,-1.2326,-1.2337,-1.2355,-1.2355,-1.2366,-1.2368,-1.2368,-1.235,-1.235,-1.235,-1.235,-1.2118,-1.2125,-1.2157,-1.2183,-1.2211,-1.2241,-1.2269,-1.2299,-1.2332,-1.2345,-1.2351,-1.2354,-1.2355,-1.2365,-1.2367,-1.2367,-1.235,-1.235,-1.235,-1.2117,-1.2128,-1.2147,-1.2178,-1.2212,-1.224,-1.2267,-1.2295,-1.2333,-1.235,-1.2355,-1.2355,-1.2361,-1.2361,-1.2379,-1.2381,-1.2383,0,0]}]]